Regional Weather Roundup
Issued by NWS

Home | Current Version | Previous Version | Graphics & Text | Print | Product List | Glossary Off
Versions: 1 2 3 4 5 6 7 8 9 10 11 12 13 14 15 16 17 18 19 20 21 22 23 24 25 26 27 28 29 30 31 32 33 34 35 36 37 38 39 40 41 42 43 44 45 46 47 48 49 50

000
ASUS43 KDTX 041310
RWRMI
MICHIGAN HOURLY REGIONAL WEATHER ROUNDUP
NATIONAL WEATHER SERVICE DETROIT/PONTIAC MI
900 AM EDT WED MAY 04 2016

NOTE: "FAIR" INDICATES FEW OR NO CLOUDS BELOW 12,000 FEET WITH NO
SIGNIFICANT WEATHER AND/OR OBSTRUCTION TO VISIBILITY.

MIZ047>049-052>055-059>063-066>070-074>076-081>083-041400-
SOUTHEAST LOWER MICHIGAN

CITY           SKY/WX    TMP DP  RH WIND       PRES   REMARKS
ADRIAN         CLOUDY    53  46  77 SW9       29.60F
ALMA           LGT RAIN  48  46  91 N9G18     29.58R
ANN ARBOR      MOSUNNY   53  46  77 S13       29.60F
BAD AXE        CLOUDY    56  43  62 SW12      29.60S
CARO           CLOUDY    54  45  71 S5        29.58F
DETROIT CITY   CLOUDY    52  46  80 S5        29.62F
DETROIT        CLOUDY    53  47  79 SE7       29.62F
FLINT          CLOUDY    58  44  60 S12       29.57F
GROSSE ILE     LGT RAIN  52  48  87 SE5       29.61F
HILLSDALE      DRIZZLE   51  43  74 S7        29.58F
HOWELL         CLOUDY    54  44  69 S9        29.57F

CITY           SKY/WX    TMP DP  RH WIND       PRES   REMARKS
JACKSON        CLOUDY    53  45  74 S9        29.57F
LAMBERTVILLE   CLOUDY    54  47  76 S7        29.62F
LANSING        LGT RAIN  52  44  74 S7        29.57S
LAPEER         CLOUDY    52  44  74 S7        29.60S
MASON          CLOUDY    50  46  85 SE6       29.57S
MONROE         CLOUDY    55  48  77 S7        29.61F
MT. CLEMENS    CLOUDY    52  50  93 S10       29.61F
PONTIAC        CLOUDY    50  46  86 S7        29.59F
PORT HOPE        N/A     49  44  83 S8        29.58S
PORT HURON     CLOUDY    52  46  82 S7        29.63F
TRI CITIES     CLOUDY    54  47  77 SE3       29.58S
MIDLAND        RAIN      49  47  90 CALM      29.57S
TROY           PTSUNNY   52  47  83 S5        29.63S
SAGINAW HB     CLOUDY    54  45  71 SE5       29.57S
$$
MIZ043>046-050>051-056>058-064>065-071>073-077>080-041400-
SOUTHWEST LOWER MICHIGAN

CITY           SKY/WX    TMP DP  RH WIND       PRES   REMARKS
BATTLE CREEK   LGT RAIN  49  47  93 S7        29.56F
BENTON HARBOR  CLOUDY    43  40  89 NW8G24    29.65R
BIG RAPIDS     RAIN      44  40  88 N9        29.60S
COLDWATER      LGT RAIN  50  47  91 SW6       29.57F
FREMONT        LGT RAIN  42  42 100 N13G18    29.62S
HOLLAND        LGT RAIN N/A N/A N/A NW10      29.62R
GRAND RAPIDS   LGT RAIN  47  44  90 N16       29.58S
IONIA          LGT RAIN  48  46  93 N8        29.56F
KALAMAZOO      LGT RAIN  48  44  86 NW20      29.57S FOG
LUDINGTON      CLOUDY    40  38  93 N16G26    29.68R WCI  32
MARSHALL       LGT RAIN  51  46  84 S5        29.56F
MOUNT PLEASANT MIX PCPN  47  45  91 N8        29.58S
MUSKEGON       CLOUDY    44  40  85 N17G23    29.64R
SOUTH HAVEN    MIX PCPN  42  41  98 NW14G23   29.64R
$$
MIZ016>042-041400-
NORTHERN LOWER MICHIGAN

CITY           SKY/WX    TMP DP  RH WIND       PRES   REMARKS
ALPENA         LGT RAIN  48  44  86 N9        29.63R
BEAVER ISLAND  CLOUDY    41  38  92 N8G16     29.72R
BELLAIRE       MIX PCPN  43  41  93 N5        29.67R
CADILLAC       DRIZZLE   41  39  95 N7        29.62S
CHARLEVOIX     RAIN      40  40 100 N10       29.72R WCI  34
FRANKFORT      DRIZZLE   40  38  93 N7G18     29.70R
GAYLORD        LGT RAIN  45  42  89 NE7       29.63R FOG
GRAYLING       MIX PCPN  45  45 100 N5        29.63S
HARBOR SPRINGS RAIN      43  41  94 N8        29.67R
HOUGHTON LAKE  LGT RAIN  45  43  93 N7        29.61S FOG
MANISTEE       CLOUDY    41  36  81 N14G20    29.69S
OSCODA         CLOUDY    48  42  78 N8        29.60R
PELLSTON       LGT RAIN  43  41  93 N9        29.68R FOG
ROGERS CITY    LGT RAIN  42  41  95 NW5       29.65R VSB 1/2
TRAVERSE CITY  LGT RAIN  42  39  89 N10G20    29.66R FOG
$$
MIZ007>008-015-041400-
EASTERN UPPER MICHIGAN

CITY           SKY/WX    TMP DP  RH WIND       PRES   REMARKS
KINROSS          N/A     43  43 100 NW13      29.68S
MACKINAC ISLAN LGT RAIN  42  42 100 N12G17    29.67R
NEWBERRY       CLOUDY    38  36  91 N13G21    29.72S WCI  30
S. S. MARIE    CLOUDY    46  40  79 N6        29.69R
MUNISING         N/A     39  33  79 N24G31    29.79R WCI  28
$$
MIZ004>006-011>014-085-041400-
CENTRAL UPPER MICHIGAN

CITY           SKY/WX    TMP DP  RH WIND       PRES   REMARKS
MANISTIQUE     CLOUDY    40  35  80 N22       29.73S WCI  31
ESCANABA       CLOUDY    39  34  81 N10G21    29.78R WCI  32
MENOMINEE      CLOUDY    42  33  70 N16       29.79R
SAWYER-GWINN   CLOUDY    36  32  87 N20G30    29.78R WCI  25
$$
MIZ001>003-009>011-084-041400-
WESTERN UPPER MICHIGAN

CITY           SKY/WX    TMP DP  RH WIND       PRES   REMARKS
IRON MOUNTAIN  CLOUDY    40  32  73 N20G26    29.79S WCI  30
HOUGHTON       CLOUDY    37  30  75 N17G24    29.86R WCI  27
COPPER HARBOR    N/A     38  34  85 NE16      29.86R WCI  29
IRONWOOD         N/A     41  34  75 N12       29.88R
$$

ABBREVIATIONS USED IN REMARKS
   TC - TEMPERATURE IN CELSIUS
  WCI - WIND CHILL INDEX
   HX - HEAT INDEX
  VSB - VISIBILITY




USA.gov is the U.S. government's official web portal to all federal, state and local government web resources and services.